Overview Statistics Trail Chart Weather Telemetry Raw packets
 

This is the latest recevied weather packets stored in our database for station/object OK2KJT-11. If no packets are shown the sender has not sent any weather packets the latest 10 day(s).

<< 41 42 43 44 45 46 47 >>
Time Temp. Humidity Pressure Rain* Wind** Luminosity Snow
1788077482 19.44° C 57% 1020 hPa - - - -
1788076882 19.44° C 56% 1020 hPa - - - -
1788076282 18.89° C 58% 1019.8 hPa - - - -
1788075681 18.89° C 60% 1019.8 hPa - - - -
1788075082 18.33° C 61% 1019.8 hPa - - - -
1788074488 17.78° C 62% 1019.8 hPa - - - -
1788073882 17.78° C 62% 1019.5 hPa - - - -
1788073282 17.78° C 62% 1019.5 hPa - - - -
1788072683 17.78° C 62% 1019.5 hPa - - - -
1788072083 17.78° C 61% 1019.5 hPa - - - -
1788071483 17.78° C 61% 1019.5 hPa - - - -
1788070883 17.78° C 61% 1019.4 hPa - - - -
1788070281 17.22° C 62% 1019.3 hPa - - - -
1788069681 17.22° C 64% 1019.4 hPa - - - -
1788069082 17.22° C 64% 1019.3 hPa - - - -
1788068482 16.67° C 65% 1019.3 hPa - - - -
1788067896 16.67° C 64% 1019.3 hPa - - - -
1788067283 17.22° C 63% 1019.3 hPa - - - -
1788066682 16.67° C 64% 1019.2 hPa - - - -
1788066082 16.67° C 64% 1019.1 hPa - - - -
1788065482 16.67° C 65% 1019.1 hPa - - - -
1788064883 16.11° C 65% 1019.1 hPa - - - -
1788064284 16.11° C 64% 1019 hPa - - - -
1788063683 16.67° C 64% 1019 hPa - - - -
1788063084 16.67° C 63% 1019 hPa - - - -

* Rain since midnight (hover to see other rain measurements)
** Current wind speed in m/s (hover to see current wind gust speed)